User: anonymous   Login
Location: ???? ?????????
(31.1304°N, 31.7111°E)
Time: 10:48:56
(UTC+00:00)
Language:

Transit 2A Rocket - Orbit

View from above orbital plane
View from above orbital plane
View from above satellite
View from above satellite

Ground track
Ground track

The orbit data is extracted from the following two-line orbital elements,

1 00047U 60007C   21059.75125701 -.00000015  00000-0  21674-4 0  9990
2 00047  66.6657 189.6627 0220724 116.6162 245.7741 14.42134669171636
Epoch (UTC): 28 February 2021 18:01:48
Eccentricity: 0.0220724
inclination: 66.6657°
perigee height: 594 km
apogee height: 909 km
right ascension of ascending node: 189.6627°
argument of perigee: 116.6162°
revolutions per day: 14.42134669
mean anomaly at epoch: 245.7741°
orbit number at epoch: 17163

The dashed part of the orbit path shows where the satellite is in the earth's shadow,  

DLR